Tracking 30986 objects as of 9-Jul-2025
HD Live streaming from Space Station
objects crossing your sky now

STARLINK-2436

Track STARLINK-2436 now!
10-day predictions
STARLINK-2436 is classified as:


NORAD ID: 48101
Int'l Code: 2021-027K
Perigee: 553.5 km
Apogee: 555.2 km
Inclination: 53.1 °
Period: 95.6 minutes
Semi major axis: 6925 km
RCS: Unknown
Launch date: April 7, 2021
Source: United States (US)
Launch site: AIR FORCE EASTERN TEST RANGE (AFETR)
Your satellite tracking list
Your tracking list is empty




NASA's NSSDC Master Catalog

Two Line Element Set (TLE):
1 48101U 21027K   25189.69994409 -.00000692  00000-0 -27602-4 0  9991
2 48101  53.0539 177.1341 0001292  83.5408 276.5728 15.06398985235783
Source of the keplerian elements: AFSPC